Regional Weather Roundup
Issued by NWS Kansas City/Pleasant Hill, MO

Home | Current Version | Previous Version | Graphics & Text | Print | Product List | Glossary Off
Versions: 1 2 3 4 5 6 7 8 9 10 11 12 13 14 15 16 17 18 19 20 21 22 23 24 25 26 27 28 29 30 31 32 33 34 35 36 37 38 39 40 41 42 43 44 45 46 47 48 49 50

218
ASUS43 KEAX 250410
RWREAX

WEATHER ROUNDUP FOR EASTERN KANSAS AND NORTHWEST MISSOURI
NATIONAL WEATHER SERVICE KANSAS CITY/PLEASANT HILL MO
1100 PM CDT SAT JUN 24 2017

KSZ040-057-103>105-MOZ028-029-037-043-250500-
...KANSAS CITY METROPOLITAN AREA...

CITY           SKY/WX    TMP DP  RH WIND       PRES   REMARKS
K.C. INTL      MOCLDY    68  49  50 SW6       30.19R
K.C. DOWNTOWN  CLEAR     71  48  43 SW6       30.18R
LEES SUMMIT    PTCLDY    71  50  47 S5        30.20R
OLATHE - IXD   CLOUDY    66  53  63 S5        30.21R
OLATHE - OJC   MOCLDY    67  53  61 S3        30.21R
LAWRENCE       MOCLDY    62  57  83 CALM      30.20R

$$

MOZ001>008-011>017-020>025-030>033-038>040-044>046-053-054-250500-
...NORTHERN AND CENTRAL MISSOURI...

CITY           SKY/WX    TMP DP  RH WIND       PRES   REMARKS
ST. JOSEPH     MOCLDY    65  51  60 W8        30.18R
MOSBY          MOCLDY    64  55  72 CALM      30.18S
WARRENSBURG    CLOUDY    63  50  63 S5        30.20S
WHITEMAN AFB   MOCLDY    63  56  78 SW6       30.19R
CLINTON        NOT AVBL
SEDALIA        CLEAR     66  52  60 SW7       30.20R
WARSAW         NOT AVBL
CHILLICOTHE      N/A     65  51  60 CALM      30.17R
KIRKSVILLE     CLEAR     63  48  58 SW3       30.15R

$$

MOZ041-047>049-056>058-063>065-088>090-097-250500-
...EASTERN AND SOUTHERN MISSOURI...

CITY           SKY/WX    TMP DP  RH WIND       PRES   REMARKS
ST. LOUIS INTL PTCLDY    67  48  50 SW5       30.19R
SPIRIT OF STL  CLEAR     60  53  77 CALM      30.18R
COLUMBIA       CLOUDY    64  54  69 S6        30.19R
JEFFERSON CITY PTCLDY    64  51  62 CALM      30.19R
ROLLA          CLEAR     55  49  80 CALM      30.20S
OSAGE BEACH    CLEAR     59  54  83 CALM      30.22R
SPRINGFIELD    CLEAR     63  54  72 CALM      30.24R
BRANSON        CLEAR     59  57  94 CALM      30.26R
JOPLIN         MOCLDY    66  56  70 CALM      30.23R
WEST PLAINS    PTCLDY    65  51  60 N5        30.24R

$$

IAZ060-094-KSZ022-034>040-054-083-096-NEZ052-066-093-250500-
...KANSAS...SOUTHEAST NEBRASKA AND IOWA...

CITY           SKY/WX    TMP DP  RH WIND       PRES   REMARKS
TOPEKA         PTCLDY    68  62  81 CALM      30.20R
MANHATTAN      MOCLDY    68  57  68 CALM      30.22R
EMPORIA        MOCLDY    65  51  60 SE6       30.23R
CHANUTE        CLEAR     62  51  67 SE5       30.23R
WICHITA        PTCLDY    71  55  56 SE9       30.23R
OMAHA          PTCLDY    64  47  53 N3        30.18R
LINCOLN        CLEAR     61  45  55 N3        30.20R
FALLS CITY     CLEAR     65  45  48 W8        30.17R
LAMONI         CLEAR     63  49  60 W7        30.16R
DES MOINES     CLEAR     65  43  44 N6        30.14R

$$





USA.gov is the U.S. government's official web portal to all federal, state and local government web resources and services.